DOUGLAS Weather Reports


time (UTC)temp
C
wind
direction
speed
KPH
gust
KPH
rain 1hr
cm
rain 24hr
cm
rain mn
cm
humidity
%
barometer
mb
20260507003003 10 252 1.6 14.5 0.00 0.00 0.00 98
20260507002003 10 263 4.8 14.5 0.00 0.00 0.00 99
20260507001003 10 256 3.2 14.5 0.00 0.00 0.00 98
20260507000004 10 271 1.6 11.3 0.00 0.00 0.00 98
20260506235002 10 246 3.2 9.7 0.00 0.00 0.00 99
20260506234002 10 220 3.2 14.5 0.00 0.00 0.00 98
20260506233003 10 257 8.0 12.9 0.00 0.00 0.00 98
20260506232003 10 266 3.2 14.5 0.00 0.00 0.00 98
20260506231003 10 182 3.2 12.9 0.00 0.00 0.00 98
20260506230004 10 247 4.8 12.9 0.00 0.00 0.00 97
20260506225003 10 264 3.2 12.9 0.00 0.00 0.00 97
20260506224003 10 277 1.6 9.7 0.00 0.00 0.00 97
20260506223003 10 258 6.4 19.3 0.00 0.00 0.00 97
20260506222002 10 269 3.2 16.1 0.00 0.00 0.00 97
20260506221003 10 264 4.8 19.3 0.00 0.00 0.00 97
20260506220003 11 275 1.6 6.4 0.00 0.00 0.00 96
20260506215004 11 241 1.6 8.0 0.00 0.00 0.00 96
20260506214002 11 269 3.2 16.1 0.00 0.00 0.00 97
20260506213003 11 252 3.2 9.7 0.00 0.00 0.00 97
20260506212008 11 279 1.6 14.5 0.00 0.00 0.00 95
20260506211003 10 258 4.8 11.3 0.00 0.00 0.00 96
20260506210004 11 231 4.8 16.1 0.00 0.00 0.00 97
20260506205003 10 219 4.8 14.5 0.00 0.00 0.00 97
20260506204004 10 260 6.4 16.1 0.00 0.00 0.00 96
20260506203003 11 261 4.8 9.7 0.00 0.00 0.00 97
20260506202003 10 279 3.2 12.9 0.00 0.00 0.00 96
20260506201003 10 266 4.8 11.3 0.00 0.00 0.00 98
20260506200004 10 256 6.4 12.9 0.00 0.00 0.00 98
20260506195003 10 242 1.6 8.0 0.00 0.00 0.00 96
20260506194003 10 265 0.0 12.9 0.00 0.00 0.00 98
20260506193002 10 227 3.2 9.7 0.00 0.00 0.00 98
20260506192002 10 258 1.6 9.7 0.00 0.00 0.00 99
20260506191003 10 266 0.0 8.0 0.00 0.00 0.00
20260506190003 10 263 1.6 8.0 0.00 0.00 0.00
20260506185003 10 237 1.6 11.3 0.00 0.00 0.00
20260506184003 10 244 1.6 6.4 0.00 0.00 0.00
20260506183004 10 269 3.2 9.7 0.00 0.00 0.00
20260506182002 10 260 1.6 8.0 0.00 0.00 0.00
20260506181002 10 200 0.0 6.4 0.00 0.00 0.00 98
20260506180004 10 227 1.6 6.4 0.00 0.00 0.00 98
20260506175003 10 246 1.6 4.8 0.00 0.00 0.00 97
20260506174003 10 215 0.0 6.4 0.00 0.00 0.00 98
20260506173003 10 263 1.6 6.4 0.00 0.00 0.00 97
20260506172003 10 265 0.0 9.7 0.00 0.00 0.00 97
20260506171003 10 276 1.6 8.0 0.00 0.00 0.00 99
20260506170004 10 237 1.6 9.7 0.00 0.00 0.00
20260506165003 10 262 4.8 9.7 0.00 0.00 0.00
20260506164003 9 247 1.6 9.7 0.00 0.00 0.00
20260506163004 9 247 1.6 6.4 0.00 0.00 0.00
20260506162003 10 104 0.0 6.4 0.00 0.00 0.00
20260506161002 9 248 1.6 6.4 0.00 0.00 0.00
20260506160003 9 265 0.0 4.8 0.00 0.00 0.00
20260506155003 9 186 1.6 6.4 0.00 0.00 0.00
20260506154003 9 225 1.6 4.8 0.00 0.00 0.00
20260506153003 9 221 0.0 3.2 0.00 0.00 0.00
20260506152003 9 124 0.0 3.2 0.00 0.00 0.00
20260506151003 8 117 1.6 8.0 0.00 0.00 0.00
20260506150004 8 202 0.0 6.4 0.00 0.00 0.00
20260506145003 8 219 3.2 6.4 0.00 0.00 0.00
20260506144003 8 90 0.0 4.8 0.00 0.00 0.00
20260506143003 8 100 1.6 4.8 0.00 0.00 0.00
20260506142003 8 81 1.6 3.2 0.00 0.00 0.00
20260506141003 8 70 0.0 1.6 0.00 0.00 0.00
20260506140008 8 213 1.6 4.8 0.00 0.00 0.00
20260506135003 8 236 0.0 3.2 0.00 0.00 0.00
20260506134003 8 268 1.6 6.4 0.00 0.00 0.00
20260506133003 8 206 0.0 4.8 0.00 0.00 0.00
20260506132003 8 289 0.0 6.4 0.00 0.00 0.00 100
20260506131003 8 306 235.0 3.2 0.00 0.00 0.00
20260506130003 8 257 0.0 3.2 0.00 0.00 0.00
20260506125002 8 247 0.0 6.4 0.00 0.00 0.00
20260506124003 8 256 1.6 4.8 0.00 0.00 0.00
20260506123003 8 251 0.0 3.2 0.00 0.00 0.00
20260506122003 8 199 0.0 4.8 0.00 0.00 0.00
20260506121003 8 290 0.0 4.8 0.00 0.00 0.00
20260506120004 8 262 0.0 4.8 0.00 0.00 0.00
20260506115003 8 267 1.6 6.4 0.00 0.00 0.00
20260506114003 8 212 1.6 4.8 0.00 0.00 0.00
20260506113019 8 242 1.6 4.8 0.00 0.00 0.00
20260506112003 8 244 0.0 6.4 0.00 0.00 0.00
20260506111003 8 246 1.6 3.2 0.00 0.00 0.00 100
20260506110003 8 247 0.0 6.4 0.00 0.00 0.00
20260506105003 8 192 0.0 8.0 0.00 0.00 0.00
20260506104003 8 247 1.6 6.4 0.00 0.00 0.00
20260506103004 8 259 0.0 3.2 0.00 0.00 0.00
20260506102002 8 123 0.0 6.4 0.00 0.00 0.00
20260506101003 8 147 1.6 4.8 0.00 0.00 0.00
20260506100009 8 206 0.0 6.4 0.00 0.00 0.00
20260506095003 8 170 0.0 4.8 0.00 0.00 0.00
20260506094003 8 234 0.0 6.4 0.00 0.00 0.00
20260506093004 8 261 1.6 8.0 0.00 0.00 0.00
20260506092002 8 252 1.6 9.7 0.00 0.00 0.00
20260506091003 8 298 0.0 6.4 0.00 0.00 0.00
20260506090003 8 250 1.6 3.2 0.00 0.00 0.00
20260506085003 8 287 0.0 6.4 0.00 0.00 0.00
20260506084003 8 244 1.6 6.4 0.00 0.00 0.00
20260506083003 8 162 0.0 3.2 0.00 0.00 0.00
20260506082002 8 261 1.6 4.8 0.00 0.00 0.00
20260506081002 8 239 1.6 6.4 0.00 0.00 0.00
20260506073003 9 265 1.6 4.8 0.00 0.00 0.00
20260506072003 9 302 0.0 1.6 0.00 0.00 0.00 100
20260506071003 9 68 235.0 0.0 0.00 0.00 0.00
20260506062003 9 257 0.0 3.2 0.00 0.00 0.00
20260506061003 9 277 1.6 4.8 0.00 0.00 0.00
20260506051003 10 258 3.2 8.0 0.00 0.00 0.00
20260506045003 10 265 3.2 6.4 0.00 0.00 0.00
20260506044002 10 258 3.2 6.4 0.00 0.00 0.00
20260506043003 10 262 1.6 8.0 0.00 0.00 0.00
20260506042003 10 255 3.2 8.0 0.00 0.00 0.00
20260506041003 10 264 3.2 8.0 0.00 0.00 0.00
20260506040004 10 256 4.8 11.3 0.00 0.00 0.00
20260506035003 10 253 4.8 12.9 0.00 0.00 0.00
20260506034003 10 260 4.8 12.9 0.00 0.00 0.00
20260506033003 10 262 6.4 11.3 0.00 0.00 0.00
20260506032003 10 260 4.8 12.9 0.00 0.00 0.00
20260506031003 10 276 1.6 11.3 0.00 0.00 0.00
20260506030004 10 259 6.4 12.9 0.00 0.00 0.00
20260506025003 10 255 4.8 11.3 0.00 0.00 0.00
20260506024003 11 261 3.2 12.9 0.00 0.00 0.00
20260506023004 11 267 3.2 11.3 0.00 0.00 0.00
20260506022002 11 256 4.8 14.5 0.00 0.00 0.00
20260506021002 11 269 4.8 9.7 0.00 0.00 0.00 99
20260506020004 11 269 3.2 12.9 0.00 0.00 0.00 98
20260506015003 11 287 1.6 17.7 0.00 0.00 0.00 97
20260506014003 11 259 6.4 12.9 0.00 0.00 0.00 95
20260506013004 12 262 6.4 17.7 0.00 0.00 0.00 92
20260506012002 12 259 4.8 14.5 0.00 0.00 0.00 91
20260506011002 12 270 1.6 16.1 0.00 0.00 0.00 90
20260506010003 13 277 3.2 9.7 0.00 0.00 0.00 89
20260506005003 13 262 6.4 16.1 0.00 0.00 0.00 88
20260506004003 13 265 4.8 16.1 0.00 0.00 0.00 85